Time,TemperatureF,DewpointF,PressureIn,WindDirection,WindDirectionDegrees,WindSpeedMPH,WindSpeedGustMPH,Humidity,HourlyPrecipIn,Conditions,Clouds,dailyrainin,SoftwareType,DateUTC
2013-07-30 00:00:00,63.9,51.5,30.18,WNW,302,0.0,2.0,64,0.00,,---,0.00,VWS V14.01,2013-07-30 08:00:00,
2013-07-30 00:02:00,63.9,51.5,30.18,WNW,302,0.0,0.0,64,0.00,,---,0.00,VWS V14.01,2013-07-30 08:02:00,
2013-07-30 00:07:00,63.8,51.4,30.18,SW,236,0.0,2.0,64,0.00,,---,0.00,VWS V14.01,2013-07-30 08:07:00,
2013-07-30 00:12:00,63.8,51.8,30.18,WNW,296,0.0,2.0,65,0.00,,---,0.00,VWS V14.01,2013-07-30 08:12:00,
2013-07-30 00:17:00,63.7,51.7,30.18,NW,309,0.0,2.0,65,0.00,,---,0.00,VWS V14.01,2013-07-30 08:17:00,
2013-07-30 00:22:00,63.5,51.5,30.18,NW,309,0.0,2.0,65,0.00,,---,0.00,VWS V14.01,2013-07-30 08:22:00,
2013-07-30 00:27:00,63.4,51.4,30.18,NW,310,1.0,2.0,65,0.00,,---,0.00,VWS V14.01,2013-07-30 08:27:00,
2013-07-30 00:30:00,63.3,51.8,30.18,NW,309,0.0,2.0,66,0.00,,---,0.00,VWS V14.01,2013-07-30 08:30:00,
2013-07-30 00:32:00,63.3,51.8,30.18,NW,310,0.0,0.0,66,0.00,,---,0.00,VWS V14.01,2013-07-30 08:32:00,
2013-07-30 00:37:00,63.1,51.6,30.18,NW,309,0.0,1.0,66,0.00,,---,0.00,VWS V14.01,2013-07-30 08:37:00,
2013-07-30 00:42:00,63.0,51.5,30.18,NNW,336,0.0,1.0,66,0.00,,---,0.00,VWS V14.01,2013-07-30 08:42:00,
2013-07-30 00:47:00,62.9,51.8,30.19,NNW,341,0.0,2.0,67,0.00,,---,0.00,VWS V14.01,2013-07-30 08:47:00,
2013-07-30 00:52:00,62.8,51.7,30.18,North,355,0.0,4.0,67,0.00,,---,0.00,VWS V14.01,2013-07-30 08:52:00,
2013-07-30 00:57:00,62.7,51.6,30.19,North,355,0.0,4.0,67,0.00,,---,0.00,VWS V14.01,2013-07-30 08:57:00,
2013-07-30 01:00:00,62.6,51.5,30.19,NNW,333,0.0,4.0,67,0.00,,---,0.00,VWS V14.01,2013-07-30 09:00:00,
2013-07-30 01:02:00,62.5,51.4,30.19,NNW,333,0.0,1.0,67,0.00,,---,0.00,VWS V14.01,2013-07-30 09:02:00,
2013-07-30 01:07:00,62.3,51.6,30.19,NNW,333,0.0,1.0,68,0.00,,---,0.00,VWS V14.01,2013-07-30 09:07:00,
2013-07-30 01:12:00,62.3,51.6,30.19,North,11,0.0,3.0,68,0.00,,---,0.00,VWS V14.01,2013-07-30 09:12:00,
2013-07-30 01:17:00,62.1,51.4,30.19,North,11,0.0,3.0,68,0.00,,---,0.00,VWS V14.01,2013-07-30 09:17:00,
2013-07-30 01:22:00,62.1,51.4,30.20,NNE,16,1.0,3.0,68,0.00,,---,0.00,VWS V14.01,2013-07-30 09:22:00,
2013-07-30 01:27:00,62.0,51.3,30.20,NNE,20,0.0,3.0,68,0.00,,---,0.00,VWS V14.01,2013-07-30 09:27:00,
2013-07-30 01:30:00,62.0,51.7,30.20,North,355,0.0,3.0,69,0.00,,---,0.00,VWS V14.01,2013-07-30 09:30:00,
2013-07-30 01:32:00,62.0,51.7,30.20,North,355,0.0,0.0,69,0.00,,---,0.00,VWS V14.01,2013-07-30 09:32:00,
2013-07-30 01:37:00,61.9,51.6,30.20,North,355,0.0,1.0,69,0.00,,---,0.00,VWS V14.01,2013-07-30 09:37:00,
2013-07-30 01:42:00,61.9,51.6,30.20,North,355,0.0,1.0,69,0.00,,---,0.00,VWS V14.01,2013-07-30 09:42:00,
2013-07-30 01:47:00,61.8,51.5,30.20,North,355,0.0,1.0,69,0.00,,---,0.00,VWS V14.01,2013-07-30 09:47:00,
2013-07-30 01:52:00,61.9,51.6,30.20,North,355,0.0,1.0,69,0.00,,---,0.00,VWS V14.01,2013-07-30 09:52:00,
2013-07-30 01:58:00,61.9,51.6,30.20,North,355,0.0,1.0,69,0.00,,---,0.00,VWS V14.01,2013-07-30 09:58:00,
2013-07-30 02:00:00,61.9,51.6,30.21,North,355,0.0,1.0,69,0.00,,---,0.00,VWS V14.01,2013-07-30 10:00:00,
2013-07-30 02:02:00,61.9,51.6,30.20,North,355,0.0,0.0,69,0.00,,---,0.00,VWS V14.01,2013-07-30 10:02:00,
2013-07-30 02:07:00,61.9,51.6,30.20,North,355,0.0,0.0,69,0.00,,---,0.00,VWS V14.01,2013-07-30 10:07:00,
2013-07-30 02:12:00,62.0,51.7,30.21,North,355,0.0,1.0,69,0.00,,---,0.00,VWS V14.01,2013-07-30 10:12:00,
2013-07-30 02:17:00,62.1,51.8,30.21,North,355,0.0,1.0,69,0.00,,---,0.00,VWS V14.01,2013-07-30 10:17:00,
2013-07-30 02:23:00,62.0,51.7,30.21,North,355,0.0,1.0,69,0.00,,---,0.00,VWS V14.01,2013-07-30 10:23:00,
2013-07-30 02:27:00,62.0,51.7,30.21,North,355,0.0,1.0,69,0.00,,---,0.00,VWS V14.01,2013-07-30 10:27:00,
2013-07-30 02:30:00,62.0,51.7,30.21,North,355,0.0,1.0,69,0.00,,---,0.00,VWS V14.01,2013-07-30 10:30:00,
2013-07-30 02:32:00,62.0,51.7,30.21,North,355,0.0,0.0,69,0.00,,---,0.00,VWS V14.01,2013-07-30 10:32:00,
2013-07-30 02:33:00,62.0,51.7,30.21,North,355,0.0,0.0,69,0.00,,---,0.00,VWS V14.01,2013-07-30 10:33:00,
2013-07-30 02:38:00,62.1,51.8,30.21,North,355,0.0,0.0,69,0.00,,---,0.00,VWS V14.01,2013-07-30 10:38:00,
2013-07-30 02:42:00,62.0,51.7,30.21,North,355,0.0,0.0,69,0.00,,---,0.00,VWS V14.01,2013-07-30 10:42:00,
2013-07-30 02:47:00,61.9,51.6,30.21,North,355,0.0,1.0,69,0.00,,---,0.00,VWS V14.01,2013-07-30 10:47:00,
2013-07-30 02:52:00,62.0,51.7,30.21,North,355,0.0,1.0,69,0.00,,---,0.00,VWS V14.01,2013-07-30 10:52:00,
2013-07-30 02:57:00,61.8,51.5,30.21,North,355,0.0,1.0,69,0.00,,---,0.00,VWS V14.01,2013-07-30 10:57:00,
2013-07-30 03:00:00,61.9,51.6,30.21,North,355,0.0,1.0,69,0.00,,---,0.00,VWS V14.01,2013-07-30 11:00:00,
2013-07-30 03:02:00,61.9,51.6,30.21,North,355,0.0,0.0,69,0.00,,---,0.00,VWS V14.01,2013-07-30 11:02:00,
2013-07-30 03:07:00,62.0,51.7,30.21,North,355,0.0,1.0,69,0.00,,---,0.00,VWS V14.01,2013-07-30 11:07:00,
2013-07-30 03:12:00,62.2,51.9,30.21,North,355,0.0,1.0,69,0.00,,---,0.00,VWS V14.01,2013-07-30 11:12:00,
2013-07-30 03:17:00,62.2,51.9,30.21,North,355,0.0,1.0,69,0.00,,---,0.00,VWS V14.01,2013-07-30 11:17:00,
2013-07-30 03:22:00,62.3,52.0,30.21,North,355,0.0,1.0,69,0.00,,---,0.00,VWS V14.01,2013-07-30 11:22:00,
2013-07-30 03:27:00,62.3,52.0,30.22,North,355,0.0,1.0,69,0.00,,---,0.00,VWS V14.01,2013-07-30 11:27:00,
2013-07-30 03:30:00,62.3,52.0,30.21,North,355,0.0,1.0,69,0.00,,---,0.00,VWS V14.01,2013-07-30 11:30:00,
2013-07-30 03:32:00,62.3,52.0,30.22,North,355,0.0,1.0,69,0.00,,---,0.00,VWS V14.01,2013-07-30 11:32:00,
2013-07-30 03:37:00,62.3,51.6,30.22,North,355,0.0,1.0,68,0.00,,---,0.00,VWS V14.01,2013-07-30 11:37:00,
2013-07-30 03:42:00,62.4,51.7,30.22,North,355,0.0,2.0,68,0.00,,---,0.00,VWS V14.01,2013-07-30 11:42:00,
2013-07-30 03:47:00,62.4,51.7,30.22,North,355,0.0,2.0,68,0.00,,---,0.00,VWS V14.01,2013-07-30 11:47:00,
2013-07-30 03:52:00,62.4,51.7,30.22,North,355,0.0,2.0,68,0.00,,---,0.00,VWS V14.01,2013-07-30 11:52:00,
2013-07-30 03:57:00,62.3,52.0,30.22,North,355,0.0,2.0,69,0.00,,---,0.00,VWS V14.01,2013-07-30 11:57:00,
2013-07-30 04:00:00,62.2,51.9,30.22,North,355,0.0,2.0,69,0.00,,---,0.00,VWS V14.01,2013-07-30 12:00:00,
2013-07-30 04:02:00,62.1,51.8,30.22,North,355,0.0,0.0,69,0.00,,---,0.00,VWS V14.01,2013-07-30 12:02:00,
2013-07-30 04:07:00,62.0,51.7,30.22,North,355,0.0,1.0,69,0.00,,---,0.00,VWS V14.01,2013-07-30 12:07:00,
2013-07-30 04:12:00,62.0,51.7,30.22,North,355,0.0,1.0,69,0.00,,---,0.00,VWS V14.01,2013-07-30 12:12:00,
2013-07-30 04:17:00,62.0,51.7,30.22,North,355,0.0,1.0,69,0.00,,---,0.00,VWS V14.01,2013-07-30 12:17:00,
2013-07-30 04:22:00,62.0,51.7,30.22,North,355,0.0,1.0,69,0.00,,---,0.00,VWS V14.01,2013-07-30 12:22:00,
2013-07-30 04:27:00,61.9,51.6,30.22,North,355,0.0,1.0,69,0.00,,---,0.00,VWS V14.01,2013-07-30 12:27:00,
2013-07-30 04:30:00,61.8,51.9,30.22,North,355,0.0,1.0,70,0.00,,---,0.00,VWS V14.01,2013-07-30 12:30:00,
2013-07-30 04:32:00,61.7,51.8,30.22,North,355,0.0,0.0,70,0.00,,---,0.00,VWS V14.01,2013-07-30 12:32:00,
2013-07-30 04:37:00,61.5,51.6,30.22,North,355,0.0,0.0,70,0.00,,---,0.00,VWS V14.01,2013-07-30 12:37:00,
2013-07-30 04:42:00,61.3,51.5,30.23,North,355,0.0,0.0,70,0.00,,---,0.00,VWS V14.01,2013-07-30 12:42:00,
2013-07-30 04:47:00,61.0,51.5,30.22,North,355,0.0,0.0,71,0.00,,---,0.00,VWS V14.01,2013-07-30 12:47:00,
2013-07-30 04:52:00,60.7,51.6,30.23,North,355,0.0,0.0,72,0.00,,---,0.00,VWS V14.01,2013-07-30 12:52:00,
2013-07-30 04:57:00,60.4,51.7,30.22,North,355,0.0,1.0,73,0.00,,---,0.00,VWS V14.01,2013-07-30 12:57:00,
2013-07-30 05:00:00,60.1,51.4,30.22,North,355,0.0,1.0,73,0.00,,---,0.00,VWS V14.01,2013-07-30 13:00:00,
2013-07-30 05:02:00,60.0,51.3,30.22,North,355,0.0,0.0,73,0.00,,---,0.00,VWS V14.01,2013-07-30 13:02:00,
2013-07-30 05:07:00,59.7,51.4,30.23,North,355,0.0,0.0,74,0.00,,---,0.00,VWS V14.01,2013-07-30 13:07:00,
2013-07-30 05:12:00,59.5,51.2,30.23,North,355,0.0,0.0,74,0.00,,---,0.00,VWS V14.01,2013-07-30 13:12:00,
2013-07-30 05:17:00,59.5,51.6,30.23,North,355,0.0,1.0,75,0.00,,---,0.00,VWS V14.01,2013-07-30 13:17:00,
2013-07-30 05:22:00,59.6,51.3,30.23,North,355,0.0,1.0,74,0.00,,---,0.00,VWS V14.01,2013-07-30 13:22:00,
2013-07-30 05:27:00,59.6,51.3,30.23,North,355,0.0,1.0,74,0.00,,---,0.00,VWS V14.01,2013-07-30 13:27:00,
2013-07-30 05:30:00,59.5,51.6,30.23,North,355,0.0,1.0,75,0.00,,---,0.00,VWS V14.01,2013-07-30 13:30:00,
2013-07-30 05:32:00,59.5,51.6,30.23,North,355,0.0,0.0,75,0.00,,---,0.00,VWS V14.01,2013-07-30 13:32:00,
2013-07-30 05:37:00,59.5,51.6,30.23,North,355,0.0,1.0,75,0.00,,---,0.00,VWS V14.01,2013-07-30 13:37:00,
2013-07-30 05:42:00,59.5,51.6,30.23,North,355,0.0,1.0,75,0.00,,---,0.00,VWS V14.01,2013-07-30 13:42:00,
2013-07-30 05:47:00,59.5,51.6,30.23,North,355,0.0,1.0,75,0.00,,---,0.00,VWS V14.01,2013-07-30 13:47:00,
2013-07-30 05:52:00,59.4,51.8,30.23,North,355,0.0,1.0,76,0.00,,---,0.00,VWS V14.01,2013-07-30 13:52:00,
2013-07-30 05:57:00,59.1,51.5,30.23,North,355,0.0,1.0,76,0.00,,---,0.00,VWS V14.01,2013-07-30 13:57:00,
2013-07-30 06:00:00,59.0,51.5,30.23,North,355,0.0,1.0,76,0.00,,---,0.00,VWS V14.01,2013-07-30 14:00:00,
2013-07-30 06:02:00,58.9,51.7,30.23,North,355,0.0,0.0,77,0.00,,---,0.00,VWS V14.01,2013-07-30 14:02:00,
2013-07-30 06:07:00,58.7,51.5,30.23,North,355,0.0,0.0,77,0.00,,---,0.00,VWS V14.01,2013-07-30 14:07:00,
2013-07-30 06:12:00,58.4,51.6,30.23,North,355,0.0,0.0,78,0.00,,---,0.00,VWS V14.01,2013-07-30 14:12:00,
2013-07-30 06:17:00,58.2,51.4,30.23,North,355,0.0,0.0,78,0.00,,---,0.00,VWS V14.01,2013-07-30 14:17:00,
2013-07-30 06:22:00,58.2,51.7,30.23,East,94,0.0,0.0,79,0.00,,---,0.00,VWS V14.01,2013-07-30 14:22:00,
2013-07-30 06:27:00,58.2,51.7,30.24,East,94,0.0,0.0,79,0.00,,---,0.00,VWS V14.01,2013-07-30 14:27:00,
2013-07-30 06:32:00,58.2,51.7,30.24,East,94,0.0,0.0,79,0.00,,---,0.00,VWS V14.01,2013-07-30 14:32:00,
2013-07-30 06:37:00,58.1,52.0,30.23,East,94,0.0,0.0,80,0.00,,---,0.00,VWS V14.01,2013-07-30 14:37:00,
2013-07-30 06:42:00,58.0,51.9,30.24,East,94,0.0,0.0,80,0.00,,---,0.00,VWS V14.01,2013-07-30 14:42:00,
2013-07-30 06:47:00,58.0,51.9,30.24,East,94,0.0,0.0,80,0.00,,---,0.00,VWS V14.01,2013-07-30 14:47:00,
2013-07-30 06:52:00,58.0,51.9,30.24,East,94,0.0,0.0,80,0.00,,---,0.00,VWS V14.01,2013-07-30 14:52:00,
2013-07-30 06:57:00,57.9,51.8,30.24,East,94,0.0,0.0,80,0.00,,---,0.00,VWS V14.01,2013-07-30 14:57:00,
2013-07-30 07:00:00,57.9,51.8,30.24,East,94,0.0,0.0,80,0.00,,---,0.00,VWS V14.01,2013-07-30 15:00:00,
2013-07-30 07:02:00,57.9,51.8,30.24,East,94,0.0,0.0,80,0.00,,---,0.00,VWS V14.01,2013-07-30 15:02:00,
2013-07-30 07:07:00,57.9,51.8,30.24,East,94,0.0,0.0,80,0.00,,---,0.00,VWS V14.01,2013-07-30 15:07:00,
2013-07-30 07:12:00,57.9,51.8,30.24,East,94,0.0,0.0,80,0.00,,---,0.00,VWS V14.01,2013-07-30 15:12:00,
2013-07-30 07:17:00,57.9,51.8,30.24,East,94,0.0,0.0,80,0.00,,---,0.00,VWS V14.01,2013-07-30 15:17:00,
2013-07-30 07:22:00,57.9,51.8,30.24,East,94,0.0,0.0,80,0.00,,---,0.00,VWS V14.01,2013-07-30 15:22:00,
2013-07-30 07:27:00,58.0,52.2,30.24,East,94,0.0,0.0,81,0.00,,---,0.00,VWS V14.01,2013-07-30 15:27:00,
2013-07-30 07:30:00,58.1,52.3,30.24,East,94,0.0,0.0,81,0.00,,---,0.00,VWS V14.01,2013-07-30 15:30:00,
2013-07-30 07:32:00,58.1,52.3,30.24,East,94,0.0,0.0,81,0.00,,---,0.00,VWS V14.01,2013-07-30 15:32:00,
2013-07-30 07:37:00,58.2,52.4,30.24,East,94,0.0,0.0,81,0.00,,---,0.00,VWS V14.01,2013-07-30 15:37:00,
2013-07-30 07:42:00,58.4,52.3,30.24,East,94,0.0,0.0,80,0.00,,---,0.00,VWS V14.01,2013-07-30 15:42:00,
2013-07-30 07:47:00,58.5,52.4,30.24,East,94,0.0,0.0,80,0.00,,---,0.00,VWS V14.01,2013-07-30 15:47:00,
2013-07-30 07:52:00,58.6,52.5,30.25,East,94,0.0,0.0,80,0.00,,---,0.00,VWS V14.01,2013-07-30 15:52:00,
2013-07-30 07:57:00,58.7,52.6,30.24,East,94,0.0,0.0,80,0.00,,---,0.00,VWS V14.01,2013-07-30 15:57:00,
2013-07-30 08:02:00,58.8,52.7,30.24,East,94,0.0,0.0,80,0.00,,---,0.00,VWS V14.01,2013-07-30 16:02:00,
2013-07-30 08:07:00,58.9,52.4,30.24,East,94,0.0,0.0,79,0.00,,---,0.00,VWS V14.01,2013-07-30 16:07:00,
2013-07-30 08:12:00,59.1,53.3,30.24,East,94,0.0,0.0,81,0.00,,---,0.00,VWS V14.01,2013-07-30 16:12:00,
2013-07-30 08:17:00,59.2,53.7,30.25,East,94,0.0,0.0,82,0.00,,---,0.00,VWS V14.01,2013-07-30 16:17:00,
2013-07-30 08:22:00,59.1,53.6,30.25,East,94,0.0,0.0,82,0.00,,---,0.00,VWS V14.01,2013-07-30 16:22:00,
2013-07-30 08:27:00,59.0,53.5,30.25,East,94,0.0,1.0,82,0.00,,---,0.00,VWS V14.01,2013-07-30 16:27:00,
2013-07-30 08:30:00,58.9,53.8,30.25,SE,142,0.0,2.0,83,0.00,,---,0.00,VWS V14.01,2013-07-30 16:30:00,
2013-07-30 08:32:00,58.9,53.8,30.25,SE,142,0.0,0.0,83,0.00,,---,0.00,VWS V14.01,2013-07-30 16:32:00,
2013-07-30 08:37:00,58.8,53.7,30.25,SE,142,0.0,1.0,83,0.00,,---,0.00,VWS V14.01,2013-07-30 16:37:00,
2013-07-30 08:42:00,58.8,53.7,30.25,SE,142,0.0,1.0,83,0.00,,---,0.00,VWS V14.01,2013-07-30 16:42:00,
2013-07-30 08:47:00,58.9,53.8,30.25,SE,142,0.0,1.0,83,0.00,,---,0.00,VWS V14.01,2013-07-30 16:47:00,
2013-07-30 08:52:00,59.0,53.8,30.25,SE,142,0.0,1.0,83,0.00,,---,0.00,VWS V14.01,2013-07-30 16:52:00,
2013-07-30 08:57:00,59.3,53.8,30.25,SE,142,1.0,4.0,82,0.00,,---,0.00,VWS V14.01,2013-07-30 16:57:00,
2013-07-30 09:00:00,59.4,53.9,30.25,SE,146,0.0,4.0,82,0.00,,---,0.00,VWS V14.01,2013-07-30 17:00:00,
2013-07-30 09:02:00,59.4,53.9,30.25,SSE,158,0.0,2.0,82,0.00,,---,0.00,VWS V14.01,2013-07-30 17:02:00,
2013-07-30 09:07:00,59.3,53.5,30.25,South,181,0.0,4.0,81,0.00,,---,0.00,VWS V14.01,2013-07-30 17:07:00,
2013-07-30 09:12:00,59.3,53.5,30.25,South,181,1.0,4.0,81,0.00,,---,0.00,VWS V14.01,2013-07-30 17:12:00,
2013-07-30 09:17:00,59.2,53.4,30.26,South,181,0.0,4.0,81,0.00,,---,0.00,VWS V14.01,2013-07-30 17:17:00,
2013-07-30 09:22:00,59.3,53.5,30.26,South,181,0.0,4.0,81,0.00,,---,0.00,VWS V14.01,2013-07-30 17:22:00,
2013-07-30 09:27:00,59.5,53.7,30.26,SSE,154,0.0,4.0,81,0.00,,---,0.00,VWS V14.01,2013-07-30 17:27:00,
2013-07-30 09:30:00,59.6,53.8,30.26,SSE,154,0.0,4.0,81,0.00,,---,0.00,VWS V14.01,2013-07-30 17:30:00,
2013-07-30 09:32:00,59.6,53.8,30.26,SSE,154,0.0,1.0,81,0.00,,---,0.00,VWS V14.01,2013-07-30 17:32:00,
2013-07-30 09:37:00,59.6,53.8,30.26,South,181,1.0,3.0,81,0.00,,---,0.00,VWS V14.01,2013-07-30 17:37:00,
2013-07-30 09:42:00,59.6,53.4,30.26,South,181,0.0,3.0,80,0.00,,---,0.00,VWS V14.01,2013-07-30 17:42:00,
2013-07-30 09:47:00,59.6,53.4,30.26,South,181,0.0,3.0,80,0.00,,---,0.00,VWS V14.01,2013-07-30 17:47:00,
2013-07-30 09:52:00,59.8,53.6,30.26,South,181,0.0,3.0,80,0.00,,---,0.00,VWS V14.01,2013-07-30 17:52:00,
2013-07-30 09:57:00,60.0,53.5,30.26,SSW,192,0.0,3.0,79,0.00,,---,0.00,VWS V14.01,2013-07-30 17:57:00,
2013-07-30 10:00:00,60.2,53.7,30.26,SSW,192,0.0,3.0,79,0.00,,---,0.00,VWS V14.01,2013-07-30 18:00:00,
2013-07-30 10:02:00,60.3,53.8,30.26,SSW,192,1.0,1.0,79,0.00,,---,0.00,VWS V14.01,2013-07-30 18:02:00,
2013-07-30 10:07:00,60.6,53.7,30.26,SSW,192,0.0,2.0,78,0.00,,---,0.00,VWS V14.01,2013-07-30 18:07:00,
2013-07-30 10:12:00,60.9,53.7,30.26,SSW,192,0.0,2.0,77,0.00,,---,0.00,VWS V14.01,2013-07-30 18:12:00,
2013-07-30 10:17:00,61.2,53.6,30.26,SSW,192,0.0,2.0,76,0.00,,---,0.00,VWS V14.01,2013-07-30 18:17:00,
2013-07-30 10:22:00,61.3,53.7,30.26,SSE,161,1.0,2.0,76,0.00,,---,0.00,VWS V14.01,2013-07-30 18:22:00,
2013-07-30 10:27:00,61.4,53.8,30.26,SSE,158,0.0,2.0,76,0.00,,---,0.00,VWS V14.01,2013-07-30 18:27:00,
2013-07-30 10:30:00,61.4,53.8,30.26,SSW,209,0.0,2.0,76,0.00,,---,0.00,VWS V14.01,2013-07-30 18:30:00,
2013-07-30 10:32:00,61.4,54.1,30.26,SSW,209,0.0,0.0,77,0.00,,---,0.00,VWS V14.01,2013-07-30 18:32:00,
2013-07-30 10:37:00,61.7,54.1,30.26,SSE,163,2.0,4.0,76,0.00,,---,0.00,VWS V14.01,2013-07-30 18:37:00,
2013-07-30 10:42:00,62.0,54.0,30.26,South,171,0.0,5.0,75,0.00,,---,0.00,VWS V14.01,2013-07-30 18:42:00,
2013-07-30 10:47:00,62.3,53.9,30.26,SSW,207,0.0,5.0,74,0.00,,---,0.00,VWS V14.01,2013-07-30 18:47:00,
2013-07-30 10:52:00,62.4,54.0,30.26,South,190,0.0,5.0,74,0.00,,---,0.00,VWS V14.01,2013-07-30 18:52:00,
2013-07-30 10:57:00,62.6,54.6,30.26,South,190,0.0,5.0,75,0.00,,---,0.00,VWS V14.01,2013-07-30 18:57:00,
2013-07-30 11:00:00,63.0,54.6,30.26,SSW,193,0.0,5.0,74,0.00,,---,0.00,VWS V14.01,2013-07-30 19:00:00,
2013-07-30 11:02:00,63.0,54.6,30.26,SSW,193,1.0,2.0,74,0.00,,---,0.00,VWS V14.01,2013-07-30 19:02:00,
2013-07-30 11:07:00,63.7,54.9,30.26,SSW,193,0.0,2.0,73,0.00,,---,0.00,VWS V14.01,2013-07-30 19:07:00,
2013-07-30 11:12:00,64.1,54.9,30.26,SSW,211,1.0,2.0,72,0.00,,---,0.00,VWS V14.01,2013-07-30 19:12:00,
2013-07-30 11:17:00,64.1,54.1,30.26,SSW,208,0.0,2.0,70,0.00,,---,0.00,VWS V14.01,2013-07-30 19:17:00,
2013-07-30 11:22:00,64.1,54.5,30.26,SSW,200,0.0,5.0,71,0.00,,---,0.00,VWS V14.01,2013-07-30 19:22:00,
2013-07-30 11:27:00,64.3,54.7,30.26,South,190,2.0,5.0,71,0.00,,---,0.00,VWS V14.01,2013-07-30 19:27:00,
2013-07-30 11:30:00,64.4,54.8,30.26,North,9,0.0,5.0,71,0.00,,---,0.00,VWS V14.01,2013-07-30 19:30:00,
2013-07-30 11:32:00,64.6,55.0,30.26,South,174,2.0,4.0,71,0.00,,---,0.00,VWS V14.01,2013-07-30 19:32:00,
2013-07-30 11:37:00,64.9,54.9,30.26,South,183,0.0,4.0,70,0.00,,---,0.00,VWS V14.01,2013-07-30 19:37:00,
2013-07-30 11:42:00,65.4,55.8,30.26,SSE,166,0.0,4.0,71,0.00,,---,0.00,VWS V14.01,2013-07-30 19:42:00,
2013-07-30 11:47:00,65.9,55.5,30.26,South,189,3.0,4.0,69,0.00,,---,0.00,VWS V14.01,2013-07-30 19:47:00,
2013-07-30 11:52:00,65.9,54.7,30.26,SW,219,0.0,6.0,67,0.00,,---,0.00,VWS V14.01,2013-07-30 19:52:00,
2013-07-30 11:57:00,66.0,55.2,30.26,WSW,256,0.0,6.0,68,0.00,,---,0.00,VWS V14.01,2013-07-30 19:57:00,
2013-07-30 12:00:00,66.0,55.5,30.26,SSW,203,0.0,6.0,69,0.00,,---,0.00,VWS V14.01,2013-07-30 20:00:00,
2013-07-30 12:02:00,66.1,55.2,30.26,SSW,203,0.0,1.0,68,0.00,,---,0.00,VWS V14.01,2013-07-30 20:02:00,
2013-07-30 12:07:00,66.3,55.4,30.26,SW,227,1.0,3.0,68,0.00,,---,0.00,VWS V14.01,2013-07-30 20:07:00,
2013-07-30 12:12:00,66.9,55.6,30.26,SW,227,0.0,3.0,67,0.00,,---,0.00,VWS V14.01,2013-07-30 20:12:00,
2013-07-30 12:17:00,66.9,55.6,30.26,South,171,2.0,4.0,67,0.00,,---,0.00,VWS V14.01,2013-07-30 20:17:00,
2013-07-30 12:22:00,67.3,55.6,30.26,South,171,1.0,4.0,66,0.00,,---,0.00,VWS V14.01,2013-07-30 20:22:00,
2013-07-30 12:27:00,67.7,56.0,30.26,SW,234,3.0,5.0,66,0.00,,---,0.00,VWS V14.01,2013-07-30 20:27:00,
2013-07-30 12:30:00,67.5,54.9,30.26,SSW,208,0.0,5.0,64,0.00,,---,0.00,VWS V14.01,2013-07-30 20:30:00,
2013-07-30 12:32:00,67.4,55.2,30.26,SSW,208,2.0,2.0,65,0.00,,---,0.00,VWS V14.01,2013-07-30 20:32:00,
2013-07-30 12:37:00,67.4,55.7,30.26,SSW,203,0.0,4.0,66,0.00,,---,0.00,VWS V14.01,2013-07-30 20:37:00,
2013-07-30 12:42:00,67.7,55.5,30.26,SSW,203,0.0,4.0,65,0.00,,---,0.00,VWS V14.01,2013-07-30 20:42:00,
2013-07-30 12:47:00,68.1,55.9,30.26,South,180,0.0,4.0,65,0.00,,---,0.00,VWS V14.01,2013-07-30 20:47:00,
2013-07-30 12:52:00,68.5,55.9,30.25,WNW,292,0.0,4.0,64,0.00,,---,0.00,VWS V14.01,2013-07-30 20:52:00,
2013-07-30 12:57:00,67.9,55.3,30.25,SW,223,0.0,4.0,64,0.00,,---,0.00,VWS V14.01,2013-07-30 20:57:00,
2013-07-30 13:00:00,67.8,55.2,30.25,SSW,208,1.0,4.0,64,0.00,,---,0.00,VWS V14.01,2013-07-30 21:00:00,
2013-07-30 13:02:00,67.7,55.5,30.25,SSW,198,1.0,4.0,65,0.00,,---,0.00,VWS V14.01,2013-07-30 21:02:00,
2013-07-30 13:07:00,67.9,55.7,30.25,South,188,1.0,4.0,65,0.00,,---,0.00,VWS V14.01,2013-07-30 21:07:00,
2013-07-30 13:12:00,68.7,56.0,30.25,SSE,155,0.0,4.0,64,0.00,,---,0.00,VWS V14.01,2013-07-30 21:12:00,
2013-07-30 13:17:00,69.4,54.9,30.25,SW,222,3.0,8.0,60,0.00,,---,0.00,VWS V14.01,2013-07-30 21:17:00,
2013-07-30 13:22:00,69.0,55.0,30.25,SW,222,3.0,8.0,61,0.00,,---,0.00,VWS V14.01,2013-07-30 21:22:00,
2013-07-30 13:27:00,69.2,55.6,30.25,SSE,159,0.0,8.0,62,0.00,,---,0.00,VWS V14.01,2013-07-30 21:27:00,
2013-07-30 13:30:00,69.7,55.2,30.25,SSW,196,1.0,8.0,60,0.00,,---,0.00,VWS V14.01,2013-07-30 21:30:00,
2013-07-30 13:32:00,69.7,55.7,30.25,SSW,196,0.0,1.0,61,0.00,,---,0.00,VWS V14.01,2013-07-30 21:32:00,
2013-07-30 13:37:00,69.9,54.9,30.25,SSE,165,7.0,7.0,59,0.00,,---,0.00,VWS V14.01,2013-07-30 21:37:00,
2013-07-30 13:42:00,69.4,54.5,30.25,SSW,205,5.0,7.0,59,0.00,,---,0.00,VWS V14.01,2013-07-30 21:42:00,
2013-07-30 13:47:00,69.4,54.0,30.25,South,173,2.0,9.0,58,0.00,,---,0.00,VWS V14.01,2013-07-30 21:47:00,
2013-07-30 13:52:00,69.5,54.1,30.25,SW,227,0.0,9.0,58,0.00,,---,0.00,VWS V14.01,2013-07-30 21:52:00,
2013-07-30 13:57:00,70.2,53.8,30.25,South,186,0.0,9.0,56,0.00,,---,0.00,VWS V14.01,2013-07-30 21:57:00,
2013-07-30 14:02:00,70.0,53.1,30.25,SSW,211,4.0,6.0,55,0.00,,---,0.00,VWS V14.01,2013-07-30 22:02:00,
2013-07-30 14:07:00,69.6,52.7,30.24,SW,217,2.0,7.0,55,0.00,,---,0.00,VWS V14.01,2013-07-30 22:07:00,
2013-07-30 14:12:00,69.7,52.8,30.25,SW,223,3.0,8.0,55,0.00,,---,0.00,VWS V14.01,2013-07-30 22:12:00,
2013-07-30 14:17:00,70.2,52.8,30.24,SW,234,5.0,8.0,54,0.00,,---,0.00,VWS V14.01,2013-07-30 22:17:00,
2013-07-30 14:22:00,70.0,52.6,30.24,SSW,196,3.0,8.0,54,0.00,,---,0.00,VWS V14.01,2013-07-30 22:22:00,
2013-07-30 14:27:00,70.1,52.7,30.24,NNW,342,1.0,8.0,54,0.00,,---,0.00,VWS V14.01,2013-07-30 22:27:00,
2013-07-30 14:30:00,70.3,52.9,30.24,SW,231,3.0,8.0,54,0.00,,---,0.00,VWS V14.01,2013-07-30 22:30:00,
2013-07-30 14:32:00,70.3,52.4,30.24,WSW,244,3.0,5.0,53,0.00,,---,0.00,VWS V14.01,2013-07-30 22:32:00,
2013-07-30 14:37:00,70.8,53.8,30.24,SE,134,5.0,6.0,55,0.00,,---,0.00,VWS V14.01,2013-07-30 22:37:00,
2013-07-30 14:42:00,71.0,52.5,30.24,SW,219,1.0,7.0,52,0.00,,---,0.00,VWS V14.01,2013-07-30 22:42:00,
2013-07-30 14:47:00,71.0,53.0,30.24,SSW,205,4.0,7.0,53,0.00,,---,0.00,VWS V14.01,2013-07-30 22:47:00,
2013-07-30 14:52:00,70.8,52.8,30.24,SSW,210,0.0,7.0,53,0.00,,---,0.00,VWS V14.01,2013-07-30 22:52:00,
2013-07-30 14:57:00,70.9,52.9,30.24,South,190,2.0,7.0,53,0.00,,---,0.00,VWS V14.01,2013-07-30 22:57:00,
2013-07-30 15:00:00,71.2,53.2,30.24,WSW,249,0.0,7.0,53,0.00,,---,0.00,VWS V14.01,2013-07-30 23:00:00,
2013-07-30 15:02:00,71.3,53.3,30.24,WSW,249,0.0,1.0,53,0.00,,---,0.00,VWS V14.01,2013-07-30 23:02:00,
2013-07-30 15:07:00,71.9,52.8,30.24,SSW,192,0.0,4.0,51,0.00,,---,0.00,VWS V14.01,2013-07-30 23:07:00,
2013-07-30 15:12:00,71.7,52.6,30.24,SW,228,2.0,7.0,51,0.00,,---,0.00,VWS V14.01,2013-07-30 23:12:00,
2013-07-30 15:17:00,72.0,52.4,30.24,SW,234,1.0,9.0,50,0.00,,---,0.00,VWS V14.01,2013-07-30 23:17:00,
2013-07-30 15:22:00,71.9,51.2,30.23,SW,227,0.0,9.0,48,0.00,,---,0.00,VWS V14.01,2013-07-30 23:22:00,
2013-07-30 15:27:00,71.4,51.8,30.23,South,176,4.0,9.0,50,0.00,,---,0.00,VWS V14.01,2013-07-30 23:27:00,
2013-07-30 15:30:00,71.3,51.7,30.23,South,180,1.0,9.0,50,0.00,,---,0.00,VWS V14.01,2013-07-30 23:30:00,
2013-07-30 15:32:00,71.4,51.3,30.23,SW,230,2.0,5.0,49,0.00,,---,0.00,VWS V14.01,2013-07-30 23:32:00,
2013-07-30 15:37:00,71.5,51.9,30.23,West,259,0.0,6.0,50,0.00,,---,0.00,VWS V14.01,2013-07-30 23:37:00,
2013-07-30 15:42:00,72.1,51.9,30.24,West,259,1.0,6.0,49,0.00,,---,0.00,VWS V14.01,2013-07-30 23:42:00,
2013-07-30 15:47:00,72.1,51.9,30.23,WSW,250,0.0,6.0,49,0.00,,---,0.00,VWS V14.01,2013-07-30 23:47:00,
2013-07-30 15:52:00,72.2,50.9,30.23,WSW,250,4.0,6.0,47,0.00,,---,0.00,VWS V14.01,2013-07-30 23:52:00,
2013-07-30 15:57:00,72.0,50.7,30.23,NW,315,1.0,8.0,47,0.00,,---,0.00,VWS V14.01,2013-07-30 23:57:00,
2013-07-30 16:00:00,72.3,51.5,30.23,WSW,245,1.0,8.0,48,0.00,,---,0.00,VWS V14.01,2013-07-31 00:00:00,
2013-07-30 16:02:00,72.4,51.6,30.23,SSW,199,2.0,6.0,48,0.00,,---,0.00,VWS V14.01,2013-07-31 00:02:00,
2013-07-30 16:07:00,72.6,52.9,30.23,SW,233,2.0,6.0,50,0.00,,---,0.00,VWS V14.01,2013-07-31 00:07:00,
2013-07-30 16:12:00,72.7,53.0,30.23,WSW,246,2.0,6.0,50,0.00,,---,0.00,VWS V14.01,2013-07-31 00:12:00,
2013-07-30 16:17:00,72.5,52.3,30.23,WSW,242,4.0,6.0,49,0.00,,---,0.00,VWS V14.01,2013-07-31 00:17:00,
2013-07-30 16:22:00,72.4,52.7,30.23,SSW,196,0.0,6.0,50,0.00,,---,0.00,VWS V14.01,2013-07-31 00:22:00,
2013-07-30 16:27:00,72.9,53.2,30.23,South,185,0.0,6.0,50,0.00,,---,0.00,VWS V14.01,2013-07-31 00:27:00,
2013-07-30 16:30:00,73.1,52.8,30.23,West,267,1.0,6.0,49,0.00,,---,0.00,VWS V14.01,2013-07-31 00:30:00,
2013-07-30 16:32:00,73.2,54.0,30.23,WSW,252,1.0,2.0,51,0.00,,---,0.00,VWS V14.01,2013-07-31 00:32:00,
2013-07-30 16:37:00,73.5,53.2,30.23,South,188,1.0,2.0,49,0.00,,---,0.00,VWS V14.01,2013-07-31 00:37:00,
2013-07-30 16:42:00,73.5,52.6,30.23,SSW,207,2.0,4.0,48,0.00,,---,0.00,VWS V14.01,2013-07-31 00:42:00,
2013-07-30 16:47:00,73.4,52.5,30.23,NW,318,0.0,4.0,48,0.00,,---,0.00,VWS V14.01,2013-07-31 00:47:00,
2013-07-30 16:52:00,73.5,52.1,30.23,WSW,249,2.0,4.0,47,0.00,,---,0.00,VWS V14.01,2013-07-31 00:52:00,
2013-07-30 16:57:00,73.5,52.6,30.23,WSW,246,1.0,4.0,48,0.00,,---,0.00,VWS V14.01,2013-07-31 00:57:00,
2013-07-30 17:00:00,73.1,52.3,30.23,NW,310,1.0,8.0,48,0.00,,---,0.00,VWS V14.01,2013-07-31 01:00:00,
2013-07-30 17:02:00,73.0,52.2,30.23,SSW,211,0.0,2.0,48,0.00,,---,0.00,VWS V14.01,2013-07-31 01:02:00,
2013-07-30 17:07:00,72.6,51.8,30.22,SSW,193,0.0,4.0,48,0.00,,---,0.00,VWS V14.01,2013-07-31 01:07:00,
2013-07-30 17:12:00,72.4,51.6,30.22,SW,214,0.0,4.0,48,0.00,,---,0.00,VWS V14.01,2013-07-31 01:12:00,
2013-07-30 17:17:00,72.4,52.2,30.22,WNW,290,2.0,5.0,49,0.00,,---,0.00,VWS V14.01,2013-07-31 01:17:00,
2013-07-30 17:22:00,72.3,51.0,30.22,SW,218,0.0,5.0,47,0.00,,---,0.00,VWS V14.01,2013-07-31 01:22:00,
2013-07-30 17:27:00,72.2,50.9,30.22,SW,220,3.0,5.0,47,0.00,,---,0.00,VWS V14.01,2013-07-31 01:27:00,
2013-07-30 17:30:00,71.9,51.2,30.22,West,267,0.0,5.0,48,0.00,,---,0.00,VWS V14.01,2013-07-31 01:30:00,
2013-07-30 17:32:00,71.9,51.2,30.22,South,181,0.0,3.0,48,0.00,,---,0.00,VWS V14.01,2013-07-31 01:32:00,
2013-07-30 17:37:00,71.8,51.1,30.22,WNW,302,0.0,4.0,48,0.00,,---,0.00,VWS V14.01,2013-07-31 01:37:00,
2013-07-30 17:42:00,71.5,49.1,30.22,SE,140,0.0,5.0,45,0.00,,---,0.00,VWS V14.01,2013-07-31 01:42:00,
2013-07-30 17:47:00,71.2,50.5,30.22,NW,324,1.0,5.0,48,0.00,,---,0.00,VWS V14.01,2013-07-31 01:47:00,
2013-07-30 17:52:00,71.0,50.3,30.22,East,83,0.0,7.0,48,0.00,,---,0.00,VWS V14.01,2013-07-31 01:52:00,
2013-07-30 17:57:00,70.8,50.7,30.22,SSW,198,0.0,7.0,49,0.00,,---,0.00,VWS V14.01,2013-07-31 01:57:00,
2013-07-30 18:00:00,70.8,50.7,30.22,SSE,148,0.0,7.0,49,0.00,,---,0.00,VWS V14.01,2013-07-31 02:00:00,
2013-07-30 18:02:00,70.8,50.7,30.22,SSW,209,0.0,4.0,49,0.00,,---,0.00,VWS V14.01,2013-07-31 02:02:00,
2013-07-30 18:07:00,70.7,51.2,30.22,SE,142,0.0,4.0,50,0.00,,---,0.00,VWS V14.01,2013-07-31 02:07:00,
2013-07-30 18:12:00,70.5,51.0,30.22,WSW,248,2.0,5.0,50,0.00,,---,0.00,VWS V14.01,2013-07-31 02:12:00,
2013-07-30 18:17:00,70.3,50.3,30.22,SW,230,2.0,5.0,49,0.00,,---,0.00,VWS V14.01,2013-07-31 02:17:00,
2013-07-30 18:22:00,70.2,50.2,30.22,SW,220,0.0,5.0,49,0.00,,---,0.00,VWS V14.01,2013-07-31 02:22:00,
2013-07-30 18:27:00,70.1,50.6,30.22,WSW,237,2.0,5.0,50,0.00,,---,0.00,VWS V14.01,2013-07-31 02:27:00,
2013-07-30 18:30:00,70.0,50.5,30.22,WSW,254,1.0,5.0,50,0.00,,---,0.00,VWS V14.01,2013-07-31 02:30:00,
2013-07-30 18:32:00,69.9,51.0,30.22,West,268,1.0,2.0,51,0.00,,---,0.00,VWS V14.01,2013-07-31 02:32:00,
2013-07-30 18:37:00,69.6,50.2,30.22,WSW,242,0.0,4.0,50,0.00,,---,0.00,VWS V14.01,2013-07-31 02:37:00,
2013-07-30 18:42:00,69.4,51.0,30.22,NW,304,0.0,4.0,52,0.00,,---,0.00,VWS V14.01,2013-07-31 02:42:00,
2013-07-30 18:47:00,69.4,51.0,30.22,SSW,205,0.0,4.0,52,0.00,,---,0.00,VWS V14.01,2013-07-31 02:47:00,
2013-07-30 18:52:00,69.3,50.9,30.22,SW,217,0.0,4.0,52,0.00,,---,0.00,VWS V14.01,2013-07-31 02:52:00,
2013-07-30 18:57:00,69.1,50.8,30.22,SW,227,2.0,4.0,52,0.00,,---,0.00,VWS V14.01,2013-07-31 02:57:00,
2013-07-30 19:00:00,68.9,50.6,30.22,WSW,254,2.0,4.0,52,0.00,,---,0.00,VWS V14.01,2013-07-31 03:00:00,
2013-07-30 19:02:00,68.8,50.5,30.22,SW,233,2.0,2.0,52,0.00,,---,0.00,VWS V14.01,2013-07-31 03:02:00,
2013-07-30 19:07:00,68.5,50.7,30.22,SW,216,1.0,5.0,53,0.00,,---,0.00,VWS V14.01,2013-07-31 03:07:00,
2013-07-30 19:12:00,68.2,50.9,30.22,SW,216,0.0,5.0,54,0.00,,---,0.00,VWS V14.01,2013-07-31 03:12:00,
2013-07-30 19:17:00,68.1,51.3,30.22,SSW,213,0.0,5.0,55,0.00,,---,0.00,VWS V14.01,2013-07-31 03:17:00,
2013-07-30 19:22:00,68.0,51.2,30.22,SW,214,0.0,5.0,55,0.00,,---,0.00,VWS V14.01,2013-07-31 03:22:00,
2013-07-30 19:27:00,68.0,51.2,30.22,SW,218,0.0,5.0,55,0.00,,---,0.00,VWS V14.01,2013-07-31 03:27:00,
2013-07-30 19:30:00,67.9,51.2,30.22,SSW,208,0.0,5.0,55,0.00,,---,0.00,VWS V14.01,2013-07-31 03:30:00,
2013-07-30 19:32:00,67.9,51.2,30.22,SSW,208,0.0,0.0,55,0.00,,---,0.00,VWS V14.01,2013-07-31 03:32:00,
2013-07-30 19:37:00,67.7,51.0,30.22,SW,225,0.0,2.0,55,0.00,,---,0.00,VWS V14.01,2013-07-31 03:37:00,
2013-07-30 19:42:00,67.6,51.4,30.22,NW,321,0.0,2.0,56,0.00,,---,0.00,VWS V14.01,2013-07-31 03:42:00,
2013-07-30 19:47:00,67.5,51.3,30.22,SSW,202,0.0,2.0,56,0.00,,---,0.00,VWS V14.01,2013-07-31 03:47:00,
2013-07-30 19:52:00,67.4,51.7,30.22,SSW,201,0.0,3.0,57,0.00,,---,0.00,VWS V14.01,2013-07-31 03:52:00,
2013-07-30 19:57:00,67.4,51.2,30.22,WNW,288,0.0,3.0,56,0.00,,---,0.00,VWS V14.01,2013-07-31 03:57:00,
2013-07-30 20:00:00,67.2,51.5,30.22,South,191,0.0,3.0,57,0.00,,---,0.00,VWS V14.01,2013-07-31 04:00:00,
2013-07-30 20:01:00,67.2,51.5,30.22,SW,217,1.0,3.0,57,0.00,,---,0.00,VWS V14.01,2013-07-31 04:01:00,
2013-07-30 20:06:00,67.1,51.4,30.22,SSW,202,0.0,4.0,57,0.00,,---,0.00,VWS V14.01,2013-07-31 04:06:00,
2013-07-30 20:11:00,67.0,51.3,30.22,SSW,198,0.0,4.0,57,0.00,,---,0.00,VWS V14.01,2013-07-31 04:11:00,
2013-07-30 20:16:00,66.8,51.6,30.22,SW,228,0.0,4.0,58,0.00,,---,0.00,VWS V14.01,2013-07-31 04:16:00,
2013-07-30 20:21:00,66.6,51.4,30.22,SW,228,0.0,4.0,58,0.00,,---,0.00,VWS V14.01,2013-07-31 04:21:00,
2013-07-30 20:26:00,66.5,51.8,30.22,SW,228,0.0,4.0,59,0.00,,---,0.00,VWS V14.01,2013-07-31 04:26:00,
2013-07-30 20:30:00,66.3,51.6,30.22,SW,228,0.0,4.0,59,0.00,,---,0.00,VWS V14.01,2013-07-31 04:30:00,
2013-07-30 20:31:00,66.3,51.6,30.22,SW,228,0.0,4.0,59,0.00,,---,0.00,VWS V14.01,2013-07-31 04:31:00,
2013-07-30 20:36:00,66.2,51.5,30.22,SW,228,0.0,0.0,59,0.00,,---,0.00,VWS V14.01,2013-07-31 04:36:00,
2013-07-30 20:41:00,66.1,51.8,30.22,SW,228,0.0,0.0,60,0.00,,---,0.00,VWS V14.01,2013-07-31 04:41:00,
2013-07-30 20:46:00,65.9,51.6,30.22,SW,236,0.0,1.0,60,0.00,,---,0.00,VWS V14.01,2013-07-31 04:46:00,
2013-07-30 20:51:00,65.8,51.5,30.22,SW,236,0.0,1.0,60,0.00,,---,0.00,VWS V14.01,2013-07-31 04:51:00,
2013-07-30 20:56:00,65.6,51.8,30.22,SW,236,0.0,1.0,61,0.00,,---,0.00,VWS V14.01,2013-07-31 04:56:00,
2013-07-30 21:01:00,65.5,51.7,30.22,SW,236,0.0,1.0,61,0.00,,---,0.00,VWS V14.01,2013-07-31 05:01:00,
2013-07-30 21:06:00,65.4,51.6,30.22,SW,236,0.0,1.0,61,0.00,,---,0.00,VWS V14.01,2013-07-31 05:06:00,
2013-07-30 21:11:00,65.3,51.5,30.22,SW,236,0.0,1.0,61,0.00,,---,0.00,VWS V14.01,2013-07-31 05:11:00,
2013-07-30 21:16:00,65.3,51.5,30.22,SW,236,0.0,1.0,61,0.00,,---,0.00,VWS V14.01,2013-07-31 05:16:00,
2013-07-30 21:21:00,65.2,51.4,30.22,SW,236,0.0,1.0,61,0.00,,---,0.00,VWS V14.01,2013-07-31 05:21:00,
2013-07-30 21:26:00,65.2,51.4,30.22,SW,236,0.0,1.0,61,0.00,,---,0.00,VWS V14.01,2013-07-31 05:26:00,
2013-07-30 21:31:00,65.1,51.3,30.22,SW,236,0.0,1.0,61,0.00,,---,0.00,VWS V14.01,2013-07-31 05:31:00,
2013-07-30 21:36:00,64.9,51.2,30.22,SW,236,0.0,1.0,61,0.00,,---,0.00,VWS V14.01,2013-07-31 05:36:00,
2013-07-30 21:41:00,64.8,51.5,30.22,SW,236,0.0,1.0,62,0.00,,---,0.00,VWS V14.01,2013-07-31 05:41:00,
2013-07-30 21:46:00,64.6,51.3,30.22,SW,236,0.0,1.0,62,0.00,,---,0.00,VWS V14.01,2013-07-31 05:46:00,
2013-07-30 21:51:00,64.4,51.1,30.22,SW,236,0.0,1.0,62,0.00,,---,0.00,VWS V14.01,2013-07-31 05:51:00,
2013-07-30 21:56:00,64.2,51.4,30.22,SW,236,0.0,1.0,63,0.00,,---,0.00,VWS V14.01,2013-07-31 05:56:00,
2013-07-30 22:00:00,63.9,51.5,30.22,SW,236,0.0,1.0,64,0.00,,---,0.00,VWS V14.01,2013-07-31 06:00:00,
2013-07-30 22:01:00,64.0,51.6,30.22,SW,236,0.0,1.0,64,0.00,,---,0.00,VWS V14.01,2013-07-31 06:01:00,
2013-07-30 22:06:00,63.7,51.3,30.22,NW,304,0.0,1.0,64,0.00,,---,0.00,VWS V14.01,2013-07-31 06:06:00,
2013-07-30 22:11:00,63.6,51.2,30.22,WNW,302,0.0,1.0,64,0.00,,---,0.00,VWS V14.01,2013-07-31 06:11:00,
2013-07-30 22:16:00,63.4,51.4,30.22,NNW,327,0.0,1.0,65,0.00,,---,0.00,VWS V14.01,2013-07-31 06:16:00,
2013-07-30 22:21:00,63.2,51.2,30.22,NNW,327,0.0,1.0,65,0.00,,---,0.00,VWS V14.01,2013-07-31 06:21:00,
2013-07-30 22:25:00,63.1,51.2,30.22,NNW,327,0.0,1.0,65,0.00,,---,0.00,VWS V14.01,2013-07-31 06:25:00,
2013-07-30 22:30:00,62.9,51.0,30.22,NNW,327,0.0,1.0,65,0.00,,---,0.00,VWS V14.01,2013-07-31 06:30:00,
2013-07-30 22:35:00,62.7,51.2,30.22,NNW,327,0.0,0.0,66,0.00,,---,0.00,VWS V14.01,2013-07-31 06:35:00,
2013-07-30 22:40:00,62.6,51.1,30.22,SW,232,1.0,1.0,66,0.00,,---,0.00,VWS V14.01,2013-07-31 06:40:00,
2013-07-30 22:45:00,62.4,50.9,30.22,North,360,0.0,2.0,66,0.00,,---,0.00,VWS V14.01,2013-07-31 06:45:00,
2013-07-30 22:50:00,62.3,50.8,30.23,North,360,0.0,2.0,66,0.00,,---,0.00,VWS V14.01,2013-07-31 06:50:00,
2013-07-30 22:55:00,62.2,50.7,30.22,North,360,0.0,2.0,66,0.00,,---,0.00,VWS V14.01,2013-07-31 06:55:00,
2013-07-30 23:00:00,62.0,50.9,30.23,North,360,0.0,2.0,67,0.00,,---,0.00,VWS V14.01,2013-07-31 07:00:00,
2013-07-30 23:05:00,61.8,50.7,30.23,North,360,0.0,0.0,67,0.00,,---,0.00,VWS V14.01,2013-07-31 07:05:00,
2013-07-30 23:10:00,61.6,50.5,30.23,NNW,334,0.0,1.0,67,0.00,,---,0.00,VWS V14.01,2013-07-31 07:10:00,
2013-07-30 23:15:00,61.5,50.5,30.23,NNW,334,0.0,1.0,67,0.00,,---,0.00,VWS V14.01,2013-07-31 07:15:00,
2013-07-30 23:20:00,61.6,50.5,30.23,NNW,334,0.0,1.0,67,0.00,,---,0.00,VWS V14.01,2013-07-31 07:20:00,
2013-07-30 23:25:00,61.6,50.5,30.23,NNW,334,0.0,1.0,67,0.00,,---,0.00,VWS V14.01,2013-07-31 07:25:00,
2013-07-30 23:30:00,61.6,50.5,30.22,NNW,334,0.0,1.0,67,0.00,,---,0.00,VWS V14.01,2013-07-31 07:30:00,
2013-07-30 23:35:00,61.6,50.1,30.22,NNW,346,0.0,2.0,66,0.00,,---,0.00,VWS V14.01,2013-07-31 07:35:00,
2013-07-30 23:40:00,61.7,50.2,30.22,NW,307,0.0,2.0,66,0.00,,---,0.00,VWS V14.01,2013-07-31 07:40:00,
2013-07-30 23:45:00,61.6,50.1,30.22,WNW,299,0.0,2.0,66,0.00,,---,0.00,VWS V14.01,2013-07-31 07:45:00,
2013-07-30 23:50:00,61.5,50.0,30.22,WNW,299,0.0,2.0,66,0.00,,---,0.00,VWS V14.01,2013-07-31 07:50:00,
2013-07-30 23:55:00,61.4,50.0,30.22,SW,235,1.0,2.0,66,0.00,,---,0.00,VWS V14.01,2013-07-31 07:55:00,